Location: Bijele Vode
(45.2833°N, 16.2000°E)
Time: 22:23:44
(UTC+00:00)

Nauka - Pass Details

Date: 06 October 2021
Orbit: 417 x 423 km, 51.6° (Epoch: 19 October)

Event Time Altitude Azimuth Distance (km) Brightness Sun altitude
Rises 17:35:26 0° 291° (WNW) 2,364 ? -13.0°
Reaches altitude 10° 17:37:48 10° 277° (W) 1,497 ? -13.4°
Maximum altitude 17:40:31 23° 223° (SW) 946 ? -13.9°
Drops below altitude 10° 17:43:13 10° 169° (S) 1,491 ? -14.4°
Enters shadow 17:43:56 - 163° (SSE) 1,739 ? -14.5°
